Location: De Wetering
(52.7626°N, 5.9922°E)
Time: 22:57:38
(UTC+00:00)

Cosmos 1697 Rocket - Pass Details

Date: 13 December 2025
Orbit: 830 x 843 km, 71.0° (Epoch: 10 April)

Event Time Altitude Azimuth Distance (km) Brightness Sun altitude
Rises 16:32:25 0° 192° (SSW) 3,362 6.4 -10.0°
Reaches altitude 10° 16:34:53 10° 187° (S) 2,432 5.5 -10.4°
Maximum altitude 16:40:16 52° 113° (ESE) 1,034 2.9 -11.1°
Enters shadow 16:45:17 12° 39° (NE) 2,302 4.4 -11.8°
